Beverly, MA

5:06 PM EDT on July 27, 2017 (GMT -0400)
Beverly Municipal

Weather History for KBVY - May, 2013

Change the Weather History Date:

Tuesday, May 21, 2013

  Actual Average Record
Temperature  
Mean Temperature 60 °F -  
Max Temperature 68 °F 62 °F 88 °F (2009)
Min Temperature 50 °F 44 °F 36 °F (2002)
Degree Days  
Heating Degree Days 6    
Growing Degree Days 10 (Base 50)    
Moisture  
Dew Point 54 °F    
Average Humidity 91    
Maximum Humidity 100    
Minimum Humidity 82    
Precipitation  
Precipitation 0.00 in - - ()
Sea Level Pressure  
Sea Level Pressure 29.95 in    
Wind  
Wind Speed 9 mph (East)    
Max Wind Speed 15 mph    
Max Gust Speed 26 mph    
Visibility 3 miles    
Events Rain    
Averages and records for this station are not official NWS values.
T = Trace of Precipitation, MM = Missing Value Source: NWS Daily Summary

Daily Weather History Graph

Daily Weather History Graph

Search for Another Location

Airport or City:

Trip Planner

Search our weather history database for the weather conditions in past years. The results will help you decide how hot, cold, wet, or windy it might be!

Date:

Astronomy

May. 21, 2013 Rise Set
Actual Time 5:15 AM EDT 8:05 PM EDT
Civil Twilight 4:42 AM EDT 8:38 PM EDT
Nautical Twilight 4:01 AM EDT 9:20 PM EDT
Astronomical Twilight 3:13 AM EDT 10:08 PM EDT
Moon 4:11 PM EDT (5/21) 2:47 AM EDT (5/21)
Length of Visible Light 15h 55m
Length of Day
14h 49m
Waxing Gibbous, 84% of the Moon is Illuminated
May 21
Waxing Gibbous
May 25
Full
May 31
Last Quarter
Jun 8
New
Jun 16
First Quarter

Hourly Weather History & Observations

Time (EDT) Temp. Dew Point Humidity Pressure Visibility Wind Dir Wind Speed Gust Speed Precip Events Conditions
12:53 AM - - N/A% 29.96 in - North - - N/A   Unknown
1:53 AM - - N/A% 29.96 in - North - - N/A   Unknown
2:53 AM - - N/A% 29.94 in - North - - N/A   Unknown
3:53 AM - - N/A% 29.93 in - North - - N/A   Unknown
4:53 AM - - N/A% 29.94 in - North - - N/A   Unknown
5:53 AM - - N/A% 29.96 in - North - - N/A   Unknown
6:53 AM - - N/A% 29.98 in - North - - N/A   Unknown
7:00 AM 57.2 °F 57.2 °F 100% 29.98 in 1.5 mi ESE 9.2 mph - N/A   Overcast
7:50 AM 57.2 °F 55.4 °F 94% 29.95 in 0.5 mi SE 9.2 mph - N/A   Overcast
7:53 AM - - N/A% 29.95 in - North - - N/A   Unknown
8:53 AM - - N/A% 29.96 in - North - - N/A   Unknown
9:50 AM 57.2 °F 57.2 °F 100% 29.95 in 0.5 mi SE 4.6 mph - N/A   Overcast
9:53 AM - - N/A% 29.95 in - North - - N/A   Unknown
10:49 AM 60.8 °F 59.0 °F 94% 29.92 in 2.0 mi SE 6.9 mph - N/A   Overcast
10:53 AM - - N/A% 29.92 in - North - - N/A   Unknown
11:50 AM 64.4 °F 59.0 °F 83% 29.92 in 4.0 mi Variable 4.6 mph - N/A   Mostly Cloudy
11:53 AM - - N/A% 29.92 in - North - - N/A   Unknown
12:50 PM 68.0 °F 62.6 °F 83% 29.89 in 7.0 mi ENE 8.1 mph - N/A   Scattered Clouds
12:53 PM - - N/A% 29.89 in - North - - N/A   Unknown
1:21 PM 62.6 °F 57.2 °F 82% 29.91 in 7.0 mi ENE 13.8 mph - N/A   Overcast
1:48 PM 57.2 °F 53.6 °F 88% 29.93 in 2.5 mi ENE 15.0 mph 26.5 mph N/A   Overcast
1:53 PM - - N/A% 29.93 in - North - - N/A   Unknown
2:48 PM 55.4 °F 51.8 °F 88% 29.94 in 6.0 mi NE 12.7 mph 24.2 mph N/A   Overcast
2:53 PM - - N/A% 29.94 in - North - - N/A   Unknown
3:53 PM - - N/A% 29.94 in - North - - N/A   Unknown
4:30 PM 53.6 °F 50.0 °F 88% 29.94 in 1.5 mi NE 15.0 mph 23.0 mph N/A   Overcast
4:48 PM 53.6 °F 50.0 °F 88% 29.95 in 2.0 mi ENE 9.2 mph 26.5 mph N/A   Overcast
4:53 PM - - N/A% 29.96 in - North - - N/A   Unknown
5:48 PM 51.8 °F 50.0 °F 94% 29.97 in 1.5 mi ENE 11.5 mph 21.9 mph N/A   Overcast
5:53 PM - - N/A% 29.96 in - North - - N/A   Unknown
6:50 PM 51.8 °F 50.0 °F 94% 29.99 in 1.5 mi ENE 9.2 mph 18.4 mph N/A   Overcast
6:53 PM - - N/A% 30.00 in - North - - N/A   Unknown
7:48 PM 51.8 °F 50.0 °F 94% 29.99 in 1.5 mi East 10.4 mph - N/A Rain Light Rain
7:53 PM - - N/A% 29.99 in - North - - N/A   Unknown
8:49 PM 50.0 °F 50.0 °F 100% 29.99 in 2.5 mi ENE 8.1 mph - N/A   Overcast
8:53 PM - - N/A% 29.99 in - North - - N/A   Unknown
9:53 PM - - N/A% 29.98 in - North - - N/A   Unknown
10:53 PM - - N/A% 29.99 in - North - - N/A   Unknown
11:53 PM - - N/A% 30.02 in - North - - N/A   Unknown